Regional Weather Roundup
Issued by NWS Upton, NY

Home | Current Version | Previous Version | Text Only | Print | Product List | Glossary On
Versions: 1 2 3 4 5 6 7 8 9 10 11 12 13 14 15 16 17 18 19 20 21 22 23 24 25 26 27 28 29 30 31 32 33 34 35 36 37 38 39 40 41 42 43 44 45 46 47
000
ASUS41 KOKX 011505
RWROKX

REGIONAL WEATHER ROUNDUP
NATIONAL WEATHER SERVICE NEW YORK NY
1100 AM EDT FRI AUG 01 2014

NOTE: "FAIR" INDICATES FEW OR NO CLOUDS BELOW 12,000 FEET WITH NO
SIGNIFICANT WEATHER AND/OR OBSTRUCTIONS TO VISIBILITY.

NYZ071-072-176-178-NJZ106-104-011600-
NEW YORK CITY METRO AREA


CITY           SKY/WX    TMP DP  RH WIND       PRES   REMARKS
CENTRAL PARK   SUNNY     80  66  62 CALM      30.22R
LAGUARDIA APRT PTSUNNY   82  67  60 CALM      30.19R
KENNEDY INTL   PTSUNNY   79  67  66 SW7       30.21R
NEWARK/LIBERTY PTSUNNY   80  68  66 CALM      30.19S
BRNX BOT. GARD   N/A     81  66  61 SE7       30.20R
TETERBORO      SUNNY     83  67  58 SW5       30.18S
$$

NYZ177-179-078>081-011600-
LONG ISLAND NEW YORK

CITY           SKY/WX    TMP DP  RH WIND       PRES   REMARKS
FARMINGDALE    MOSUNNY   79  68  69 CALM      30.20S
ISLIP          PTSUNNY   82  67  60 CALM      30.20R
SHIRLEY        PTSUNNY   80  69  69 VRB5      30.21S
WESTHAMPTON    CLOUDY    79  69  71 S6        30.23R
MONTAUK POINT    N/A     78  70  76 SE5       30.24S
$$

NYZ052-065-067-011600-
HUDSON VALLEY

CITY           SKY/WX    TMP DP  RH WIND       PRES   REMARKS
WHITE PLAINS   MOSUNNY   81  68  64 S7        30.20R
NEWBURGH       SUNNY     75  70  83 CALM      30.22R
MONTGOMERY     SUNNY     75  67  76 CALM      30.20S
POUGHKEEPSIE   MOSUNNY   79  68  69 CALM      30.18S
ALBANY         PTSUNNY   73  64  73 SE7       30.20R
$$

NJZ001-105-106-008-010-013-015-019>022-104-011600-
NEW JERSEY

CITY           SKY/WX    TMP DP  RH WIND       PRES   REMARKS
NEWARK/LIBERTY PTSUNNY   80  68  66 CALM      30.19S
TETERBORO      SUNNY     83  67  58 SW5       30.18S
CALDWELL       SUNNY     76  67  73 CALM      30.20S
MORRISTOWN     PTSUNNY   81  70  69 S5        30.20R HAZE
SOMERVILLE     MOSUNNY   79  68  69 VRB5      30.18S
LINDEN         FAIR      81  68  65 CALM      30.21R
SUSSEX         MOSUNNY   76  67  73 VRB3      30.21R
ANDOVER          N/A     76  67  73 CALM      30.21S
TRENTON        MOSUNNY   80  69  69 VRB3      30.19S
MILLVILLE      PTSUNNY   80  68  66 S5        30.19S
ATLANTIC CITY  PTSUNNY   81  68  64 CALM      30.19S
WRIGHTSTOWN    LGT RAIN  79  70  73 CALM      30.18R
TOMS RIVER     PTSUNNY   81  68  65 CALM      30.20S
BELMAR         PTSUNNY   79  66  65 CALM      30.20S
$$

PAZ047>061-062-071-011600-
EASTERN PENNSYLVANIA

CITY           SKY/WX    TMP DP  RH WIND       PRES   REMARKS
PHILADELPHIA   PTSUNNY   80  69  69 S6        30.19R
ALLENTOWN      CLOUDY    79  67  66 CALM      30.20R
SCRANTON       PTSUNNY   77  61  57 S3        30.20S
$$

CTZ002-004>006-009-010-012-RIZ004-006-007-MAZ004-011-015-011600-
SOUTHERN NEW ENGLAND
 IN CT

CITY           SKY/WX    TMP DP  RH WIND       PRES   REMARKS
BRADLEY INTL   MOSUNNY   80  65  59 S8        30.20S
HARTFORD       MOSUNNY   79  66  64 S5        30.20R
DANBURY        MOSUNNY   79  67  66 VRB3      30.21S
WTRBRY/OXFORD  MOSUNNY   79  66  65 W5        30.24R
BRIDGEPORT     PTSUNNY   76  68  76 S6        30.20R
MERIDEN        PTSUNNY   82  65  56 CALM      30.20S
NEW HAVEN      PTSUNNY   78  68  71 S7        30.21R
CHESTER        FAIR      79  66  65 W3        30.23R
GROTON         PTSUNNY   74  69  85 S6        30.21S
WILLIMANTIC    MOSUNNY   78  67  68 VRB5      30.22S

 IN RI

CITY           SKY/WX    TMP DP  RH WIND       PRES   REMARKS
PROVIDENCE     PTSUNNY   76  67  73 SE7       30.24R
BLOCK ISLAND   PTSUNNY   75  66  73 S9        30.25S
WESTERLY       MOSUNNY   75  68  78 SE7       30.23S

 IN MA

CITY           SKY/WX    TMP DP  RH WIND       PRES   REMARKS
BOSTON         PTSUNNY   76  66  71 E8        30.22R
WORCESTER      MOSUNNY   76  64  66 VRB6      30.25R
WESTFIELD      MOSUNNY   79  67  66 S7        30.20S
PROVINCETOWN   PTSUNNY   77  68  73 S7        30.25R
NANTUCKET      PTSUNNY   72  65  78 S8        30.26R
$$

ANZ330-335-338-340-345-350-353-355-011600-
COASTAL MARINE OBSERVATIONS


STATION/POSITION TIME  SKY/WX   TEMP    WIND        PRES    VSBY  WAVE
                                AIR SEA DIR/SP/G                  HT/PER
                 (UTC)          (F)     (DEG/KT/KT) (MB)    (MI)  (FT/S)
NY HARB ENTRANCE NOT AVBL
4S FIRE IS       NOT AVBL
23SW MTP         1500            74 71              1023.3          3/ 7
HUDSON CANYON    1500            74 74  130/  6/  6 1023.4          3/ 7
EXECUTION ROCKS  1500            76 71   70/  2/  4   N/A
WESTERN LI SOUND 1500            75     130/  2/  4   N/A           0
CENTRAL LI SOUND 1400            73 73  160/  2/  4   N/A           1
EASTERN LI SOUND 1400            72 69  140/  4/  6   N/A
ROBBINS REEF     1500            73     160/  7/  8   N/A
$$


>>>>>>>>>>>>>>>>>>>>>>>>>>>> KEY <<<<<<<<<<<<<<<<<<<<<<<<<<<
>                                                          <
>     SKY/WX - SKY CONDITION/PRESENT WEATHER               <
>     TMP    - TEMPERATURE IN FAHRENHEIT                   <
>     DP     - DEWPOINT IN FAHRENHEIT                      <
>     RH     - RELATIVE HUMIDITY IN PERCENT                <
>     WIND   - DIRECTION AND SPEED IN MPH                  <
>     PRES   - MEAN SEA LEVEL PRESSURE IN INCHES OF HG     <
>     WCI    - WIND CHILL INDEX                            <
>     VSB    - VISIBILITY IN MILES                         <
>     HX     - HEAT INDEX                                  <
>     TC     - TEMPERATURE IN CELSIUS                      <
>     VRB    - VARIABLE WIND DIRECTION                     <
>                                                          <
>>>>>>>>>>>>>>>>>>>>>>>>>>>> KEY <<<<<<<<<<<<<<<<<<<<<<<<<<<





USA.gov is the U.S. government's official web portal to all federal, state and local government web resources and services.